Time,TemperatureF,DewpointF,PressureIn,WindDirection,WindDirectionDegrees,WindSpeedMPH,WindSpeedGustMPH,Humidity,HourlyPrecipIn,Conditions,Clouds,dailyrainin,SolarRadiationWatts/m^2,SoftwareType,DateUTC
2013-10-22 00:00:00,51.2,45.9,29.96,SW,235,0.0,0.0,82,0.00,,---,0.00,0.00,VWS V14.01,2013-10-22 04:00:00,
2013-10-22 00:01:00,51.0,45.4,29.96,SW,235,0.0,0.0,81,0.00,,---,0.00,0.00,VWS V14.01,2013-10-22 04:01:00,
2013-10-22 00:02:00,51.0,45.7,29.96,SW,235,0.0,0.0,82,0.00,,---,0.00,0.00,VWS V14.01,2013-10-22 04:02:00,
2013-10-22 00:03:00,51.0,45.7,29.96,SW,235,0.0,0.0,82,0.00,,---,0.00,0.00,VWS V14.01,2013-10-22 04:03:00,
2013-10-22 00:08:00,51.2,45.9,29.96,SW,235,0.0,0.0,82,0.00,,---,0.00,0.00,VWS V14.01,2013-10-22 04:08:00,
2013-10-22 00:10:00,51.6,46.3,29.95,SW,235,0.0,0.0,82,0.00,,---,0.00,0.00,VWS V14.01,2013-10-22 04:10:00,
2013-10-22 00:13:00,51.4,46.1,29.96,SW,235,0.0,0.0,82,0.00,,---,0.00,0.00,VWS V14.01,2013-10-22 04:13:00,
2013-10-22 00:18:00,51.6,46.3,29.96,SW,235,0.0,0.0,82,0.00,,---,0.00,0.00,VWS V14.01,2013-10-22 04:18:00,
2013-10-22 00:20:00,52.0,46.4,29.96,SW,235,0.0,0.0,81,0.00,,---,0.00,0.00,VWS V14.01,2013-10-22 04:20:00,
2013-10-22 00:24:00,51.9,46.3,29.96,SW,235,0.0,0.0,81,0.00,,---,0.00,0.00,VWS V14.01,2013-10-22 04:24:00,
2013-10-22 00:29:00,52.1,46.5,29.96,SW,235,0.0,1.0,81,0.00,,---,0.00,0.00,VWS V14.01,2013-10-22 04:29:00,
2013-10-22 00:30:00,52.3,46.7,29.96,SW,235,0.0,1.0,81,0.00,,---,0.00,0.00,VWS V14.01,2013-10-22 04:30:00,
2013-10-22 00:34:00,52.3,46.7,29.95,SW,235,0.0,1.0,81,0.00,,---,0.00,0.00,VWS V14.01,2013-10-22 04:34:00,
2013-10-22 00:39:00,52.4,46.8,29.95,SW,235,0.0,0.0,81,0.00,,---,0.00,0.00,VWS V14.01,2013-10-22 04:39:00,
2013-10-22 00:40:00,52.4,46.8,29.96,SW,235,0.0,0.0,81,0.00,,---,0.00,0.00,VWS V14.01,2013-10-22 04:40:00,
2013-10-22 00:44:00,52.4,46.8,29.95,SW,235,0.0,0.0,81,0.00,,---,0.00,0.00,VWS V14.01,2013-10-22 04:44:00,
2013-10-22 00:49:00,52.4,46.8,29.96,SW,235,0.0,0.0,81,0.00,,---,0.00,0.00,VWS V14.01,2013-10-22 04:49:00,
2013-10-22 00:50:00,52.5,46.8,29.95,SW,235,0.0,0.0,81,0.00,,---,0.00,0.00,VWS V14.01,2013-10-22 04:50:00,
2013-10-22 00:54:00,52.4,46.4,29.95,SW,235,0.0,0.0,80,0.00,,---,0.00,0.00,VWS V14.01,2013-10-22 04:54:00,
2013-10-22 01:00:00,52.6,46.9,29.96,SW,235,0.0,0.0,81,0.00,,---,0.00,0.00,VWS V14.01,2013-10-22 05:00:00,
2013-10-22 01:05:00,52.6,46.9,29.96,SW,235,0.0,0.0,81,0.00,,---,0.00,0.00,VWS V14.01,2013-10-22 05:05:00,
2013-10-22 01:10:00,52.6,46.9,29.96,SW,235,0.0,0.0,81,0.00,,---,0.00,0.00,VWS V14.01,2013-10-22 05:10:00,
2013-10-22 01:15:00,52.5,46.8,29.96,SW,235,0.0,0.0,81,0.00,,---,0.00,0.00,VWS V14.01,2013-10-22 05:15:00,
2013-10-22 01:20:00,52.4,46.8,29.96,SW,235,0.0,0.0,81,0.00,,---,0.00,0.00,VWS V14.01,2013-10-22 05:20:00,
2013-10-22 01:25:00,52.4,47.1,29.95,SW,235,0.0,0.0,82,0.00,,---,0.00,0.00,VWS V14.01,2013-10-22 05:25:00,
2013-10-22 01:30:00,52.3,47.0,29.95,SW,235,0.0,0.0,82,0.00,,---,0.00,0.00,VWS V14.01,2013-10-22 05:30:00,
2013-10-22 01:35:00,52.1,46.8,29.96,SW,235,0.0,0.0,82,0.00,,---,0.00,0.00,VWS V14.01,2013-10-22 05:35:00,
2013-10-22 01:40:00,51.9,46.9,29.95,SW,235,0.0,0.0,83,0.00,,---,0.00,0.00,VWS V14.01,2013-10-22 05:40:00,
2013-10-22 01:41:00,52.1,46.8,29.95,SW,235,0.0,0.0,82,0.00,,---,0.00,0.00,VWS V14.01,2013-10-22 05:41:00,
2013-10-22 01:46:00,51.9,46.9,29.95,SW,235,0.0,0.0,83,0.00,,---,0.00,0.00,VWS V14.01,2013-10-22 05:46:00,
2013-10-22 01:50:00,51.8,47.1,29.95,SW,235,0.0,0.0,84,0.00,,---,0.00,0.00,VWS V14.01,2013-10-22 05:50:00,
2013-10-22 01:51:00,51.8,46.8,29.96,SW,235,0.0,0.0,83,0.00,,---,0.00,0.00,VWS V14.01,2013-10-22 05:51:00,
2013-10-22 01:56:00,51.8,47.1,29.96,SW,235,0.0,0.0,84,0.00,,---,0.00,0.00,VWS V14.01,2013-10-22 05:56:00,
2013-10-22 02:00:00,51.8,47.1,29.95,SW,235,0.0,0.0,84,0.00,,---,0.00,0.00,VWS V14.01,2013-10-22 06:00:00,
2013-10-22 02:01:00,51.8,47.1,29.95,SW,235,0.0,0.0,84,0.00,,---,0.00,0.00,VWS V14.01,2013-10-22 06:01:00,
2013-10-22 02:06:00,51.8,47.1,29.95,SW,235,0.0,0.0,84,0.00,,---,0.00,0.00,VWS V14.01,2013-10-22 06:06:00,
2013-10-22 02:10:00,51.9,47.2,29.95,SW,235,0.0,0.0,84,0.00,,---,0.00,0.00,VWS V14.01,2013-10-22 06:10:00,
2013-10-22 02:11:00,51.9,47.2,29.95,SW,235,0.0,0.0,84,0.00,,---,0.00,0.00,VWS V14.01,2013-10-22 06:11:00,
2013-10-22 02:17:00,51.9,47.2,29.95,SW,235,0.0,0.0,84,0.00,,---,0.00,0.00,VWS V14.01,2013-10-22 06:17:00,
2013-10-22 02:20:00,51.9,47.5,29.95,SW,235,0.0,0.0,85,0.00,,---,0.00,0.00,VWS V14.01,2013-10-22 06:20:00,
2013-10-22 02:22:00,51.9,47.2,29.95,SW,235,0.0,0.0,84,0.00,,---,0.00,0.00,VWS V14.01,2013-10-22 06:22:00,
2013-10-22 02:27:00,51.9,47.5,29.95,SW,235,0.0,0.0,85,0.00,,---,0.00,0.00,VWS V14.01,2013-10-22 06:27:00,
2013-10-22 02:30:00,51.9,47.5,29.95,SW,235,0.0,0.0,85,0.00,,---,0.00,0.00,VWS V14.01,2013-10-22 06:30:00,
2013-10-22 02:32:00,51.9,47.5,29.96,SW,235,0.0,0.0,85,0.00,,---,0.00,0.00,VWS V14.01,2013-10-22 06:32:00,
2013-10-22 02:37:00,51.9,47.5,29.95,SW,235,0.0,0.0,85,0.00,,---,0.00,0.00,VWS V14.01,2013-10-22 06:37:00,
2013-10-22 02:40:00,51.9,47.5,29.95,SW,235,0.0,0.0,85,0.00,,---,0.00,0.00,VWS V14.01,2013-10-22 06:40:00,
2013-10-22 02:42:00,51.9,47.5,29.95,SW,235,0.0,0.0,85,0.00,,---,0.00,0.00,VWS V14.01,2013-10-22 06:42:00,
2013-10-22 02:47:00,51.9,47.5,29.95,SW,235,0.0,0.0,85,0.00,,---,0.00,0.00,VWS V14.01,2013-10-22 06:47:00,
2013-10-22 02:50:00,51.9,47.8,29.95,SW,235,0.0,0.0,86,0.00,,---,0.00,0.00,VWS V14.01,2013-10-22 06:50:00,
2013-10-22 02:52:00,51.9,47.8,29.95,SW,235,0.0,0.0,86,0.00,,---,0.00,0.00,VWS V14.01,2013-10-22 06:52:00,
2013-10-22 02:57:00,51.9,47.8,29.95,SW,235,0.0,0.0,86,0.00,,---,0.00,0.00,VWS V14.01,2013-10-22 06:57:00,
2013-10-22 03:00:00,52.1,48.0,29.95,SW,235,0.0,0.0,86,0.00,,---,0.00,0.00,VWS V14.01,2013-10-22 07:00:00,
2013-10-22 03:03:00,52.0,48.0,29.95,SW,235,0.0,0.0,86,0.00,,---,0.00,0.00,VWS V14.01,2013-10-22 07:03:00,
2013-10-22 03:08:00,52.1,48.0,29.95,SW,235,0.0,0.0,86,0.00,,---,0.00,0.00,VWS V14.01,2013-10-22 07:08:00,
2013-10-22 03:10:00,52.1,48.0,29.95,SW,235,0.0,1.0,86,0.00,,---,0.00,0.00,VWS V14.01,2013-10-22 07:10:00,
2013-10-22 03:13:00,52.1,48.0,29.94,SW,235,0.0,1.0,86,0.00,,---,0.00,0.00,VWS V14.01,2013-10-22 07:13:00,
2013-10-22 03:18:00,52.1,48.0,29.94,SW,235,0.0,0.0,86,0.00,,---,0.00,0.00,VWS V14.01,2013-10-22 07:18:00,
2013-10-22 03:20:00,51.9,47.5,29.94,SW,235,0.0,0.0,85,0.00,,---,0.00,0.00,VWS V14.01,2013-10-22 07:20:00,
2013-10-22 03:23:00,52.0,48.0,29.94,SW,235,0.0,0.0,86,0.00,,---,0.00,0.00,VWS V14.01,2013-10-22 07:23:00,
2013-10-22 03:28:00,51.9,47.5,29.94,SW,235,0.0,0.0,85,0.00,,---,0.00,0.00,VWS V14.01,2013-10-22 07:28:00,
2013-10-22 03:30:00,51.5,47.5,29.94,SW,235,0.0,0.0,86,0.00,,---,0.00,0.00,VWS V14.01,2013-10-22 07:30:00,
2013-10-22 03:33:00,51.7,47.7,29.94,SW,235,0.0,0.0,86,0.00,,---,0.00,0.00,VWS V14.01,2013-10-22 07:33:00,
2013-10-22 03:38:00,51.5,47.5,29.94,SW,235,0.0,0.0,86,0.00,,---,0.00,0.00,VWS V14.01,2013-10-22 07:38:00,
2013-10-22 03:40:00,51.5,47.5,29.94,SW,235,0.0,0.0,86,0.00,,---,0.00,0.00,VWS V14.01,2013-10-22 07:40:00,
2013-10-22 03:43:00,51.5,47.5,29.94,SW,235,0.0,0.0,86,0.00,,---,0.00,0.00,VWS V14.01,2013-10-22 07:43:00,
2013-10-22 03:49:00,51.5,47.5,29.94,SW,235,0.0,0.0,86,0.00,,---,0.00,0.00,VWS V14.01,2013-10-22 07:49:00,
2013-10-22 03:50:00,51.9,47.5,29.93,SW,235,0.0,1.0,85,0.00,,---,0.00,0.00,VWS V14.01,2013-10-22 07:50:00,
2013-10-22 03:54:00,51.7,47.7,29.93,SW,235,1.0,1.0,86,0.00,,---,0.00,0.00,VWS V14.01,2013-10-22 07:54:00,
2013-10-22 03:59:00,51.9,47.5,29.93,SW,235,0.0,0.0,85,0.00,,---,0.00,0.00,VWS V14.01,2013-10-22 07:59:00,
2013-10-22 04:00:00,52.3,47.6,29.93,SW,235,0.0,1.0,84,0.00,,---,0.00,0.00,VWS V14.01,2013-10-22 08:00:00,
2013-10-22 04:04:00,52.1,47.7,29.94,SW,235,1.0,1.0,85,0.00,,---,0.00,0.00,VWS V14.01,2013-10-22 08:04:00,
2013-10-22 04:09:00,52.3,47.6,29.94,SW,235,1.0,1.0,84,0.00,,---,0.00,0.00,VWS V14.01,2013-10-22 08:09:00,
2013-10-22 04:10:00,52.8,47.8,29.93,SW,235,2.0,4.0,83,0.00,,---,0.00,0.00,VWS V14.01,2013-10-22 08:10:00,
2013-10-22 04:14:00,52.6,47.6,29.93,SW,235,0.0,2.0,83,0.00,,---,0.00,0.00,VWS V14.01,2013-10-22 08:14:00,
2013-10-22 04:19:00,53.0,48.0,29.93,SW,235,0.0,2.0,83,0.00,,---,0.00,0.00,VWS V14.01,2013-10-22 08:19:00,
2013-10-22 04:20:00,53.5,48.2,29.93,West,279,0.0,4.0,82,0.00,,---,0.00,0.00,VWS V14.01,2013-10-22 08:20:00,
2013-10-22 04:24:00,53.3,48.0,29.93,SW,235,0.0,2.0,82,0.00,,---,0.00,0.00,VWS V14.01,2013-10-22 08:24:00,
2013-10-22 04:29:00,53.7,48.0,29.93,WSW,253,0.0,1.0,81,0.00,,---,0.00,0.00,VWS V14.01,2013-10-22 08:29:00,
2013-10-22 04:30:00,54.2,48.2,29.93,WNW,284,0.0,5.0,80,0.00,,---,0.00,0.00,VWS V14.01,2013-10-22 08:30:00,
2013-10-22 04:34:00,54.0,48.3,29.94,SW,223,2.0,4.0,81,0.00,,---,0.00,0.00,VWS V14.01,2013-10-22 08:34:00,
2013-10-22 04:40:00,54.3,48.3,29.93,WNW,282,0.0,1.0,80,0.00,,---,0.00,0.00,VWS V14.01,2013-10-22 08:40:00,
2013-10-22 04:45:00,54.6,48.6,29.93,SW,229,0.0,4.0,80,0.00,,---,0.00,0.00,VWS V14.01,2013-10-22 08:45:00,
2013-10-22 04:50:00,54.7,48.7,29.93,WNW,286,0.0,2.0,80,0.00,,---,0.00,0.00,VWS V14.01,2013-10-22 08:50:00,
2013-10-22 04:55:00,54.8,48.4,29.92,WSW,243,0.0,4.0,79,0.00,,---,0.00,0.00,VWS V14.01,2013-10-22 08:55:00,
2013-10-22 05:00:00,54.9,48.5,29.93,SSW,198,3.0,5.0,79,0.00,,---,0.00,0.00,VWS V14.01,2013-10-22 09:00:00,
2013-10-22 05:05:00,54.9,48.5,29.93,West,271,0.0,5.0,79,0.00,,---,0.00,0.00,VWS V14.01,2013-10-22 09:05:00,
2013-10-22 05:10:00,54.8,48.4,29.93,West,271,0.0,2.0,79,0.00,,---,0.00,0.00,VWS V14.01,2013-10-22 09:10:00,
2013-10-22 05:15:00,54.8,48.4,29.93,West,271,0.0,3.0,79,0.00,,---,0.00,0.00,VWS V14.01,2013-10-22 09:15:00,
2013-10-22 05:20:00,54.8,48.8,29.93,SSE,152,0.0,2.0,80,0.00,,---,0.00,0.00,VWS V14.01,2013-10-22 09:20:00,
2013-10-22 05:25:00,54.7,48.3,29.93,SSW,209,0.0,3.0,79,0.00,,---,0.00,0.00,VWS V14.01,2013-10-22 09:25:00,
2013-10-22 05:30:00,54.7,48.7,29.93,WSW,240,3.0,4.0,80,0.00,,---,0.00,0.00,VWS V14.01,2013-10-22 09:30:00,
2013-10-22 05:35:00,54.8,48.8,29.93,SW,223,0.0,4.0,80,0.00,,---,0.00,0.00,VWS V14.01,2013-10-22 09:35:00,
2013-10-22 05:40:00,54.8,48.4,29.93,WSW,249,0.0,6.0,79,0.00,,---,0.00,0.00,VWS V14.01,2013-10-22 09:40:00,
2013-10-22 05:41:00,54.8,48.8,29.93,SW,224,0.0,3.0,80,0.00,,---,0.00,0.00,VWS V14.01,2013-10-22 09:41:00,
2013-10-22 05:46:00,54.7,48.3,29.93,WSW,249,0.0,6.0,79,0.00,,---,0.00,0.00,VWS V14.01,2013-10-22 09:46:00,
2013-10-22 05:50:00,54.7,48.3,29.93,WSW,238,0.0,5.0,79,0.00,,---,0.00,0.00,VWS V14.01,2013-10-22 09:50:00,
2013-10-22 05:51:00,54.7,48.3,29.93,WSW,252,1.0,3.0,79,0.00,,---,0.00,0.00,VWS V14.01,2013-10-22 09:51:00,
2013-10-22 05:56:00,54.7,48.3,29.93,SW,219,0.0,5.0,79,0.00,,---,0.00,0.00,VWS V14.01,2013-10-22 09:56:00,
2013-10-22 06:00:00,54.6,48.2,29.93,SW,223,0.0,3.0,79,0.00,,---,0.00,0.00,VWS V14.01,2013-10-22 10:00:00,
2013-10-22 06:01:00,54.7,48.3,29.93,SW,220,0.0,3.0,79,0.00,,---,0.00,0.00,VWS V14.01,2013-10-22 10:01:00,
2013-10-22 06:06:00,54.6,48.2,29.93,SW,223,0.0,3.0,79,0.00,,---,0.00,0.00,VWS V14.01,2013-10-22 10:06:00,
2013-10-22 06:10:00,54.4,48.0,29.92,SW,223,0.0,3.0,79,0.00,,---,0.00,0.00,VWS V14.01,2013-10-22 10:10:00,
2013-10-22 06:11:00,54.6,48.2,29.93,SW,223,0.0,2.0,79,0.00,,---,0.00,0.00,VWS V14.01,2013-10-22 10:11:00,
2013-10-22 06:16:00,54.4,48.0,29.92,SW,223,0.0,3.0,79,0.00,,---,0.00,0.00,VWS V14.01,2013-10-22 10:16:00,
2013-10-22 06:20:00,54.2,47.8,29.92,SW,223,0.0,2.0,79,0.00,,---,0.00,0.00,VWS V14.01,2013-10-22 10:20:00,
2013-10-22 06:21:00,54.4,48.0,29.92,SW,223,0.0,2.0,79,0.00,,---,0.00,0.00,VWS V14.01,2013-10-22 10:21:00,
2013-10-22 06:26:00,54.3,47.9,29.92,SW,223,0.0,2.0,79,0.00,,---,0.00,0.00,VWS V14.01,2013-10-22 10:26:00,
2013-10-22 06:30:00,54.0,47.6,29.93,SW,223,0.0,2.0,79,0.00,,---,0.00,0.00,VWS V14.01,2013-10-22 10:30:00,
2013-10-22 06:31:00,54.2,47.8,29.92,SW,223,0.0,1.0,79,0.00,,---,0.00,0.00,VWS V14.01,2013-10-22 10:31:00,
2013-10-22 06:36:00,54.0,47.6,29.93,SW,223,0.0,2.0,79,0.00,,---,0.00,0.00,VWS V14.01,2013-10-22 10:36:00,
2013-10-22 06:40:00,53.6,47.6,29.92,SW,223,0.0,1.0,80,0.00,,---,0.00,0.00,VWS V14.01,2013-10-22 10:40:00,
2013-10-22 06:41:00,53.9,47.9,29.93,SW,223,0.0,1.0,80,0.00,,---,0.00,0.00,VWS V14.01,2013-10-22 10:41:00,
2013-10-22 06:46:00,53.6,47.6,29.92,SW,223,0.0,1.0,80,0.00,,---,0.00,0.00,VWS V14.01,2013-10-22 10:46:00,
2013-10-22 06:50:00,53.3,47.6,29.93,SW,223,0.0,0.0,81,0.00,,---,0.00,0.00,VWS V14.01,2013-10-22 10:50:00,
2013-10-22 06:52:00,53.4,47.4,29.92,SW,223,0.0,0.0,80,0.00,,---,0.00,0.00,VWS V14.01,2013-10-22 10:52:00,
2013-10-22 06:57:00,53.3,47.6,29.93,SW,223,0.0,0.0,81,0.00,,---,0.00,0.00,VWS V14.01,2013-10-22 10:57:00,
2013-10-22 07:00:00,53.0,47.3,29.93,SW,223,0.0,1.0,81,0.00,,---,0.00,0.00,VWS V14.01,2013-10-22 11:00:00,
2013-10-22 07:02:00,53.1,47.4,29.93,SW,223,0.0,1.0,81,0.00,,---,0.00,0.00,VWS V14.01,2013-10-22 11:02:00,
2013-10-22 07:07:00,53.0,47.3,29.93,SW,223,0.0,1.0,81,0.00,,---,0.00,0.00,VWS V14.01,2013-10-22 11:07:00,
2013-10-22 07:10:00,52.5,47.2,29.92,SW,223,0.0,0.0,82,0.00,,---,0.00,0.00,VWS V14.01,2013-10-22 11:10:00,
2013-10-22 07:12:00,52.8,47.1,29.93,SW,223,0.0,0.0,81,0.00,,---,0.00,0.00,VWS V14.01,2013-10-22 11:12:00,
2013-10-22 07:17:00,52.5,47.2,29.92,SW,223,0.0,0.0,82,0.00,,---,0.00,0.00,VWS V14.01,2013-10-22 11:17:00,
2013-10-22 07:20:00,52.1,47.1,29.92,SW,223,0.0,0.0,83,0.00,,---,0.00,0.00,VWS V14.01,2013-10-22 11:20:00,
2013-10-22 07:22:00,52.3,47.0,29.92,SW,223,0.0,0.0,82,0.00,,---,0.00,0.00,VWS V14.01,2013-10-22 11:22:00,
2013-10-22 07:27:00,52.1,47.1,29.92,SW,223,0.0,0.0,83,0.00,,---,0.00,0.00,VWS V14.01,2013-10-22 11:27:00,
2013-10-22 07:30:00,51.8,47.4,29.92,SW,223,0.0,0.0,85,0.00,,---,0.00,0.00,VWS V14.01,2013-10-22 11:30:00,
2013-10-22 07:32:00,51.9,47.2,29.92,SW,223,0.0,0.0,84,0.00,,---,0.00,0.00,VWS V14.01,2013-10-22 11:32:00,
2013-10-22 07:37:00,51.8,47.4,29.92,SW,223,0.0,0.0,85,0.00,,---,0.00,0.00,VWS V14.01,2013-10-22 11:37:00,
2013-10-22 07:40:00,51.7,47.7,29.92,SW,223,0.0,1.0,86,0.00,,---,0.00,0.00,VWS V14.01,2013-10-22 11:40:00,
2013-10-22 07:42:00,51.7,47.3,29.92,SW,223,0.0,1.0,85,0.00,,---,0.00,0.00,VWS V14.01,2013-10-22 11:42:00,
2013-10-22 07:47:00,51.7,47.7,29.92,SW,223,0.0,1.0,86,0.00,,---,0.00,0.00,VWS V14.01,2013-10-22 11:47:00,
2013-10-22 07:50:00,51.9,47.8,29.92,SW,223,0.0,3.0,86,0.00,,---,0.00,7.00,VWS V14.01,2013-10-22 11:50:00,
2013-10-22 07:53:00,51.8,47.8,29.93,SW,223,2.0,3.0,86,0.00,,---,0.00,5.00,VWS V14.01,2013-10-22 11:53:00,
2013-10-22 07:58:00,51.9,47.8,29.92,SW,223,0.0,0.0,86,0.00,,---,0.00,7.00,VWS V14.01,2013-10-22 11:58:00,
2013-10-22 08:00:00,52.2,48.2,29.92,SW,223,0.0,1.0,86,0.00,,---,0.00,7.00,VWS V14.01,2013-10-22 12:00:00,
2013-10-22 08:03:00,52.1,48.0,29.92,SW,223,0.0,1.0,86,0.00,,---,0.00,7.00,VWS V14.01,2013-10-22 12:03:00,
2013-10-22 08:08:00,52.2,48.2,29.92,SW,223,0.0,0.0,86,0.00,,---,0.00,7.00,VWS V14.01,2013-10-22 12:08:00,
2013-10-22 08:10:00,52.3,48.2,29.92,SW,223,0.0,0.0,86,0.00,,---,0.00,18.00,VWS V14.01,2013-10-22 12:10:00,
2013-10-22 08:13:00,52.2,49.1,29.92,SW,223,0.0,0.0,89,0.00,,---,0.00,9.00,VWS V14.01,2013-10-22 12:13:00,
2013-10-22 08:18:00,52.3,48.2,29.92,SW,223,0.0,0.0,86,0.00,,---,0.00,18.00,VWS V14.01,2013-10-22 12:18:00,
2013-10-22 08:20:00,52.4,48.7,29.92,SW,223,0.0,1.0,87,0.00,,---,0.00,37.00,VWS V14.01,2013-10-22 12:20:00,
2013-10-22 08:23:00,52.3,48.2,29.92,SW,223,0.0,1.0,86,0.00,,---,0.00,28.00,VWS V14.01,2013-10-22 12:23:00,
2013-10-22 08:28:00,52.4,48.7,29.92,SW,223,0.0,0.0,87,0.00,,---,0.00,39.00,VWS V14.01,2013-10-22 12:28:00,
2013-10-22 08:30:00,52.4,48.7,29.92,SW,223,0.0,2.0,87,0.00,,---,0.00,47.00,VWS V14.01,2013-10-22 12:30:00,
2013-10-22 08:33:00,52.4,48.7,29.92,SW,223,0.0,2.0,87,0.00,,---,0.00,46.00,VWS V14.01,2013-10-22 12:33:00,
2013-10-22 08:38:00,52.5,48.8,29.92,SW,223,0.0,0.0,87,0.00,,---,0.00,47.00,VWS V14.01,2013-10-22 12:38:00,
2013-10-22 08:40:00,52.7,49.0,29.92,SW,223,0.0,2.0,87,0.00,,---,0.00,67.00,VWS V14.01,2013-10-22 12:40:00,
2013-10-22 08:43:00,52.6,48.8,29.92,SW,223,0.0,0.0,87,0.00,,---,0.00,53.00,VWS V14.01,2013-10-22 12:43:00,
2013-10-22 08:48:00,52.7,49.0,29.92,SW,223,0.0,1.0,87,0.00,,---,0.00,63.00,VWS V14.01,2013-10-22 12:48:00,
2013-10-22 08:50:00,52.9,48.8,29.92,SW,223,0.0,3.0,86,0.00,,---,0.00,58.00,VWS V14.01,2013-10-22 12:50:00,
2013-10-22 08:54:00,52.9,48.8,29.92,SW,223,1.0,3.0,86,0.00,,---,0.00,53.00,VWS V14.01,2013-10-22 12:54:00,
2013-10-22 08:59:00,53.0,48.9,29.92,SW,223,0.0,1.0,86,0.00,,---,0.00,65.00,VWS V14.01,2013-10-22 12:59:00,
2013-10-22 09:00:00,53.1,49.3,29.92,SW,223,0.0,3.0,87,0.00,,---,0.00,91.00,VWS V14.01,2013-10-22 13:00:00,
2013-10-22 09:04:00,53.0,48.9,29.92,SW,223,0.0,2.0,86,0.00,,---,0.00,60.00,VWS V14.01,2013-10-22 13:04:00,
2013-10-22 09:09:00,53.2,49.4,29.92,SW,223,1.0,3.0,87,0.00,,---,0.00,98.00,VWS V14.01,2013-10-22 13:09:00,
2013-10-22 09:10:00,53.5,49.4,29.93,SW,223,0.0,3.0,86,0.00,,---,0.00,105.00,VWS V14.01,2013-10-22 13:10:00,
2013-10-22 09:14:00,53.3,49.2,29.93,SW,223,0.0,3.0,86,0.00,,---,0.00,100.00,VWS V14.01,2013-10-22 13:14:00,
2013-10-22 09:19:00,53.6,49.5,29.93,SW,223,1.0,1.0,86,0.00,,---,0.00,109.00,VWS V14.01,2013-10-22 13:19:00,
2013-10-22 09:20:00,54.0,49.9,29.94,SW,223,0.0,4.0,86,0.00,,---,0.00,127.00,VWS V14.01,2013-10-22 13:20:00,
2013-10-22 09:24:00,53.9,49.8,29.94,SW,223,0.0,4.0,86,0.00,,---,0.00,105.00,VWS V14.01,2013-10-22 13:24:00,
2013-10-22 09:29:00,54.1,50.0,29.94,SW,223,0.0,1.0,86,0.00,,---,0.00,127.00,VWS V14.01,2013-10-22 13:29:00,
2013-10-22 09:30:00,54.6,50.2,29.93,SW,223,0.0,3.0,85,0.00,,---,0.00,121.00,VWS V14.01,2013-10-22 13:30:00,
2013-10-22 09:34:00,54.4,50.0,29.93,SW,223,1.0,3.0,85,0.00,,---,0.00,148.00,VWS V14.01,2013-10-22 13:34:00,
2013-10-22 09:39:00,54.7,50.3,29.93,SW,223,1.0,1.0,85,0.00,,---,0.00,100.00,VWS V14.01,2013-10-22 13:39:00,
2013-10-22 09:40:00,55.0,49.9,29.93,SW,223,0.0,2.0,83,0.00,,---,0.00,91.00,VWS V14.01,2013-10-22 13:40:00,
2013-10-22 09:44:00,54.9,50.2,29.93,SW,223,0.0,2.0,84,0.00,,---,0.00,104.00,VWS V14.01,2013-10-22 13:44:00,
2013-10-22 09:49:00,55.0,49.9,29.93,SW,223,1.0,1.0,83,0.00,,---,0.00,76.00,VWS V14.01,2013-10-22 13:49:00,
2013-10-22 09:50:00,55.1,49.7,29.94,SW,225,0.0,3.0,82,0.00,,---,0.00,102.00,VWS V14.01,2013-10-22 13:50:00,
2013-10-22 09:54:00,55.0,49.3,29.94,SW,225,0.0,3.0,81,0.00,,---,0.00,76.00,VWS V14.01,2013-10-22 13:54:00,
2013-10-22 10:00:00,55.1,49.4,29.94,SW,225,0.0,2.0,81,0.00,,---,0.00,107.00,VWS V14.01,2013-10-22 14:00:00,
2013-10-22 10:05:00,55.0,49.3,29.93,SW,225,0.0,3.0,81,0.00,,---,0.00,84.00,VWS V14.01,2013-10-22 14:05:00,
2013-10-22 10:10:00,55.1,49.7,29.93,SW,225,0.0,1.0,82,0.00,,---,0.00,128.00,VWS V14.01,2013-10-22 14:10:00,
2013-10-22 10:15:00,55.2,49.8,29.93,SW,225,0.0,2.0,82,0.00,,---,0.00,178.00,VWS V14.01,2013-10-22 14:15:00,
2013-10-22 10:20:00,55.5,50.1,29.94,SW,225,0.0,0.0,82,0.00,,---,0.00,195.00,VWS V14.01,2013-10-22 14:20:00,
2013-10-22 10:25:00,55.8,50.4,29.94,SW,225,0.0,3.0,82,0.00,,---,0.00,285.00,VWS V14.01,2013-10-22 14:25:00,
2013-10-22 10:30:00,56.2,50.1,29.93,SW,225,0.0,1.0,80,0.00,,---,0.00,267.00,VWS V14.01,2013-10-22 14:30:00,
2013-10-22 10:35:00,56.5,50.1,29.94,SW,225,0.0,1.0,79,0.00,,---,0.00,248.00,VWS V14.01,2013-10-22 14:35:00,
2013-10-22 10:40:00,57.0,50.6,29.94,WNW,290,2.0,4.0,79,0.00,,---,0.00,264.00,VWS V14.01,2013-10-22 14:40:00,
2013-10-22 10:45:00,57.3,50.5,29.93,West,279,1.0,4.0,78,0.00,,---,0.00,265.00,VWS V14.01,2013-10-22 14:45:00,
2013-10-22 10:50:00,57.6,50.5,29.93,WSW,242,6.0,7.0,77,0.00,,---,0.00,185.00,VWS V14.01,2013-10-22 14:50:00,
2013-10-22 10:55:00,57.6,50.8,29.93,WSW,237,0.0,7.0,78,0.00,,---,0.00,200.00,VWS V14.01,2013-10-22 14:55:00,
2013-10-22 11:00:00,57.7,50.5,29.93,WSW,238,0.0,5.0,77,0.00,,---,0.00,304.00,VWS V14.01,2013-10-22 15:00:00,
2013-10-22 11:05:00,57.8,50.7,29.93,WSW,251,1.0,5.0,77,0.00,,---,0.00,262.00,VWS V14.01,2013-10-22 15:05:00,
2013-10-22 11:10:00,58.4,50.9,29.92,SW,221,0.0,6.0,76,0.00,,---,0.00,153.00,VWS V14.01,2013-10-22 15:10:00,
2013-10-22 11:11:00,58.0,50.5,29.92,West,261,0.0,2.0,76,0.00,,---,0.00,417.00,VWS V14.01,2013-10-22 15:11:00,
2013-10-22 11:16:00,58.3,50.8,29.92,SW,214,0.0,6.0,76,0.00,,---,0.00,276.00,VWS V14.01,2013-10-22 15:16:00,
2013-10-22 11:20:00,58.8,50.9,29.91,WSW,238,3.0,3.0,75,0.00,,---,0.00,578.00,VWS V14.01,2013-10-22 15:20:00,
2013-10-22 11:21:00,58.6,50.7,29.92,WSW,238,0.0,2.0,75,0.00,,---,0.00,165.00,VWS V14.01,2013-10-22 15:21:00,
2013-10-22 11:26:00,58.8,51.3,29.91,WSW,238,0.0,2.0,76,0.00,,---,0.00,570.00,VWS V14.01,2013-10-22 15:26:00,
2013-10-22 11:30:00,59.6,51.0,29.91,SW,222,0.0,3.0,73,0.00,,---,0.00,262.00,VWS V14.01,2013-10-22 15:30:00,
2013-10-22 11:31:00,59.1,50.8,29.91,WSW,238,1.0,3.0,74,0.00,,---,0.00,657.00,VWS V14.01,2013-10-22 15:31:00,
2013-10-22 11:36:00,59.5,50.8,29.91,SW,225,0.0,3.0,73,0.00,,---,0.00,262.00,VWS V14.01,2013-10-22 15:36:00,
2013-10-22 11:40:00,60.5,50.7,29.91,WSW,237,3.0,6.0,70,0.00,,---,0.00,508.00,VWS V14.01,2013-10-22 15:40:00,
2013-10-22 11:41:00,59.9,51.2,29.91,SSE,163,2.0,3.0,73,0.00,,---,0.00,679.00,VWS V14.01,2013-10-22 15:41:00,
2013-10-22 11:46:00,60.4,51.0,29.91,South,169,1.0,3.0,71,0.00,,---,0.00,508.00,VWS V14.01,2013-10-22 15:46:00,
2013-10-22 11:50:00,61.3,51.1,29.90,ENE,71,0.0,7.0,69,0.00,,---,0.00,499.00,VWS V14.01,2013-10-22 15:50:00,
2013-10-22 11:51:00,60.8,51.0,29.91,SW,232,1.0,7.0,70,0.00,,---,0.00,687.00,VWS V14.01,2013-10-22 15:51:00,
2013-10-22 11:56:00,61.2,51.0,29.90,SE,125,0.0,7.0,69,0.00,,---,0.00,499.00,VWS V14.01,2013-10-22 15:56:00,
2013-10-22 12:00:00,61.9,50.4,29.90,WNW,300,0.0,6.0,66,0.00,,---,0.00,156.00,VWS V14.01,2013-10-22 16:00:00,
2013-10-22 12:01:00,61.7,51.8,29.90,SW,228,0.0,6.0,70,0.00,,---,0.00,373.00,VWS V14.01,2013-10-22 16:01:00,
2013-10-22 12:07:00,61.9,50.8,29.90,WNW,302,0.0,6.0,67,0.00,,---,0.00,197.00,VWS V14.01,2013-10-22 16:07:00,
2013-10-22 12:10:00,61.4,51.5,29.90,West,262,1.0,5.0,70,0.00,,---,0.00,253.00,VWS V14.01,2013-10-22 16:10:00,
2013-10-22 12:12:00,61.7,50.6,29.90,West,266,0.0,2.0,67,0.00,,---,0.00,221.00,VWS V14.01,2013-10-22 16:12:00,
2013-10-22 12:17:00,61.5,51.2,29.90,West,263,0.0,5.0,69,0.00,,---,0.00,207.00,VWS V14.01,2013-10-22 16:17:00,
2013-10-22 12:20:00,61.3,51.1,29.90,SW,230,0.0,5.0,69,0.00,,---,0.00,332.00,VWS V14.01,2013-10-22 16:20:00,
2013-10-22 12:22:00,61.3,51.1,29.90,SW,228,2.0,5.0,69,0.00,,---,0.00,306.00,VWS V14.01,2013-10-22 16:22:00,
2013-10-22 12:27:00,61.3,51.1,29.90,SW,230,0.0,5.0,69,0.00,,---,0.00,332.00,VWS V14.01,2013-10-22 16:27:00,
2013-10-22 12:30:00,61.6,51.3,29.89,NNE,13,0.0,4.0,69,0.00,,---,0.00,244.00,VWS V14.01,2013-10-22 16:30:00,
2013-10-22 12:32:00,61.4,51.2,29.89,SW,230,0.0,1.0,69,0.00,,---,0.00,271.00,VWS V14.01,2013-10-22 16:32:00,
2013-10-22 12:37:00,61.6,51.3,29.89,NNE,15,1.0,4.0,69,0.00,,---,0.00,241.00,VWS V14.01,2013-10-22 16:37:00,
2013-10-22 12:40:00,61.6,51.0,29.89,WSW,242,0.0,8.0,68,0.00,,---,0.00,188.00,VWS V14.01,2013-10-22 16:40:00,
2013-10-22 12:42:00,61.8,51.5,29.89,SW,232,0.0,3.0,69,0.00,,---,0.00,149.00,VWS V14.01,2013-10-22 16:42:00,
2013-10-22 12:47:00,61.7,51.0,29.89,WSW,242,0.0,8.0,68,0.00,,---,0.00,225.00,VWS V14.01,2013-10-22 16:47:00,
2013-10-22 12:50:00,61.4,51.9,29.88,WSW,248,0.0,5.0,71,0.00,,---,0.00,318.00,VWS V14.01,2013-10-22 16:50:00,
2013-10-22 12:52:00,61.4,51.5,29.89,WSW,242,0.0,5.0,70,0.00,,---,0.00,200.00,VWS V14.01,2013-10-22 16:52:00,
2013-10-22 12:57:00,61.4,51.9,29.88,WSW,248,0.0,5.0,71,0.00,,---,0.00,318.00,VWS V14.01,2013-10-22 16:57:00,
2013-10-22 13:00:00,61.8,51.9,29.87,SW,225,2.0,5.0,70,0.00,,---,0.00,125.00,VWS V14.01,2013-10-22 17:00:00,
2013-10-22 13:03:00,61.6,51.7,29.88,WSW,249,0.0,2.0,70,0.00,,---,0.00,179.00,VWS V14.01,2013-10-22 17:03:00,
2013-10-22 13:08:00,61.8,51.1,29.87,SW,225,5.0,5.0,68,0.00,,---,0.00,125.00,VWS V14.01,2013-10-22 17:08:00,
2013-10-22 13:10:00,62.1,52.2,29.87,North,355,1.0,7.0,70,0.00,,---,0.00,265.00,VWS V14.01,2013-10-22 17:10:00,
2013-10-22 13:13:00,61.7,51.8,29.87,SW,225,3.0,7.0,70,0.00,,---,0.00,907.00,VWS V14.01,2013-10-22 17:13:00,
2013-10-22 13:18:00,62.2,51.9,29.87,North,355,0.0,1.0,69,0.00,,---,0.00,265.00,VWS V14.01,2013-10-22 17:18:00,
2013-10-22 13:20:00,62.4,51.7,29.86,SW,230,4.0,6.0,68,0.00,,---,0.00,302.00,VWS V14.01,2013-10-22 17:20:00,
2013-10-22 13:23:00,62.3,51.6,29.86,SW,234,0.0,6.0,68,0.00,,---,0.00,265.00,VWS V14.01,2013-10-22 17:23:00,
2013-10-22 13:28:00,62.4,51.7,29.86,SW,232,2.0,5.0,68,0.00,,---,0.00,805.00,VWS V14.01,2013-10-22 17:28:00,
2013-10-22 13:30:00,63.3,52.6,29.85,SW,221,2.0,6.0,68,0.00,,---,0.00,902.00,VWS V14.01,2013-10-22 17:30:00,
2013-10-22 13:33:00,62.8,52.5,29.86,SW,225,1.0,5.0,69,0.00,,---,0.00,807.00,VWS V14.01,2013-10-22 17:33:00,
2013-10-22 13:38:00,63.5,52.8,29.85,SW,216,0.0,9.0,68,0.00,,---,0.00,893.00,VWS V14.01,2013-10-22 17:38:00,
2013-10-22 13:40:00,63.6,52.0,29.85,SW,221,5.0,9.0,66,0.00,,---,0.00,225.00,VWS V14.01,2013-10-22 17:40:00,
2013-10-22 13:43:00,63.7,51.7,29.85,WNW,290,0.0,9.0,65,0.00,,---,0.00,192.00,VWS V14.01,2013-10-22 17:43:00,
2013-10-22 13:49:00,63.5,52.0,29.85,SSW,202,0.0,6.0,66,0.00,,---,0.00,287.00,VWS V14.01,2013-10-22 17:49:00,
2013-10-22 13:50:00,63.0,51.1,29.84,SSW,192,4.0,6.0,65,0.00,,---,0.00,281.00,VWS V14.01,2013-10-22 17:50:00,
2013-10-22 13:54:00,63.2,51.7,29.84,WSW,243,0.0,6.0,66,0.00,,---,0.00,290.00,VWS V14.01,2013-10-22 17:54:00,
2013-10-22 13:59:00,62.9,51.4,29.84,SSW,200,2.0,4.0,66,0.00,,---,0.00,285.00,VWS V14.01,2013-10-22 17:59:00,
2013-10-22 14:00:00,62.4,51.3,29.84,WNW,284,5.0,11.0,67,0.00,,---,0.00,223.00,VWS V14.01,2013-10-22 18:00:00,
2013-10-22 14:04:00,62.6,51.5,29.84,SW,227,5.0,7.0,67,0.00,,---,0.00,207.00,VWS V14.01,2013-10-22 18:04:00,
2013-10-22 14:09:00,62.3,50.8,29.84,South,180,2.0,6.0,66,0.00,,---,0.00,276.00,VWS V14.01,2013-10-22 18:09:00,
2013-10-22 14:10:00,62.1,51.4,29.83,WSW,240,0.0,10.0,68,0.00,,---,0.00,241.00,VWS V14.01,2013-10-22 18:10:00,
2013-10-22 14:14:00,62.1,50.6,29.83,SW,235,4.0,9.0,66,0.00,,---,0.00,311.00,VWS V14.01,2013-10-22 18:14:00,
2013-10-22 14:19:00,62.1,51.4,29.83,WSW,240,0.0,1.0,68,0.00,,---,0.00,213.00,VWS V14.01,2013-10-22 18:19:00,
2013-10-22 14:20:00,62.0,51.3,29.83,South,190,1.0,9.0,68,0.00,,---,0.00,276.00,VWS V14.01,2013-10-22 18:20:00,
2013-10-22 14:24:00,62.1,51.4,29.83,SW,221,5.0,7.0,68,0.00,,---,0.00,301.00,VWS V14.01,2013-10-22 18:24:00,
2013-10-22 14:29:00,62.0,51.7,29.83,WNW,302,1.0,7.0,69,0.00,,---,0.00,302.00,VWS V14.01,2013-10-22 18:29:00,
2013-10-22 14:30:00,62.4,51.7,29.82,SW,217,3.0,14.0,68,0.00,,---,0.00,441.00,VWS V14.01,2013-10-22 18:30:00,
2013-10-22 14:34:00,62.1,52.6,29.83,SSW,208,0.0,14.0,71,0.00,,---,0.00,543.00,VWS V14.01,2013-10-22 18:34:00,
2013-10-22 14:40:00,62.6,51.9,29.82,SE,132,7.0,7.0,68,0.00,,---,0.00,396.00,VWS V14.01,2013-10-22 18:40:00,
2013-10-22 14:45:00,62.6,51.5,29.82,SSE,161,2.0,7.0,67,0.00,,---,0.00,559.00,VWS V14.01,2013-10-22 18:45:00,
2013-10-22 14:50:00,63.0,52.3,29.82,North,355,0.0,7.0,68,0.00,,---,0.00,737.00,VWS V14.01,2013-10-22 18:50:00,
2013-10-22 14:55:00,63.6,52.0,29.82,NE,36,0.0,10.0,66,0.00,,---,0.00,742.00,VWS V14.01,2013-10-22 18:55:00,
2013-10-22 15:00:00,64.2,52.6,29.82,WSW,239,3.0,3.0,66,0.00,,---,0.00,738.00,VWS V14.01,2013-10-22 19:00:00,
2013-10-22 15:05:00,64.7,52.7,29.82,WNW,293,1.0,4.0,65,0.00,,---,0.00,705.00,VWS V14.01,2013-10-22 19:05:00,
2013-10-22 15:10:00,65.2,53.2,29.81,SSW,196,1.0,4.0,65,0.00,,---,0.00,717.00,VWS V14.01,2013-10-22 19:10:00,
2013-10-22 15:15:00,65.3,52.4,29.81,NNE,15,1.0,4.0,63,0.00,,---,0.00,387.00,VWS V14.01,2013-10-22 19:15:00,
2013-10-22 15:20:00,65.0,52.5,29.81,NE,44,0.0,4.0,64,0.00,,---,0.00,388.00,VWS V14.01,2013-10-22 19:20:00,
2013-10-22 15:26:00,64.4,52.0,29.81,WSW,241,6.0,10.0,64,0.00,,---,0.00,139.00,VWS V14.01,2013-10-22 19:26:00,
2013-10-22 15:30:00,62.3,52.0,29.81,SW,221,0.0,9.0,69,0.00,,---,0.00,125.00,VWS V14.01,2013-10-22 19:30:00,
2013-10-22 15:31:00,63.1,51.6,29.81,SW,217,0.0,9.0,66,0.00,,---,0.00,132.00,VWS V14.01,2013-10-22 19:31:00,
2013-10-22 15:36:00,62.4,51.3,29.81,SW,221,0.0,9.0,67,0.00,,---,0.00,128.00,VWS V14.01,2013-10-22 19:36:00,
2013-10-22 15:40:00,61.8,51.9,29.81,SSW,196,1.0,3.0,70,0.00,,---,0.00,125.00,VWS V14.01,2013-10-22 19:40:00,
2013-10-22 15:41:00,62.0,51.3,29.81,South,189,2.0,3.0,68,0.00,,---,0.00,97.00,VWS V14.01,2013-10-22 19:41:00,
2013-10-22 15:46:00,61.8,51.5,29.81,SSW,196,0.0,3.0,69,0.00,,---,0.00,121.00,VWS V14.01,2013-10-22 19:46:00,
2013-10-22 15:50:00,61.6,51.3,29.81,WSW,237,0.0,4.0,69,0.00,,---,0.00,174.00,VWS V14.01,2013-10-22 19:50:00,
2013-10-22 15:51:00,61.7,51.8,29.81,SSW,196,0.0,2.0,70,0.00,,---,0.00,174.00,VWS V14.01,2013-10-22 19:51:00,
2013-10-22 15:56:00,61.6,51.3,29.81,WSW,245,3.0,4.0,69,0.00,,---,0.00,179.00,VWS V14.01,2013-10-22 19:56:00,
2013-10-22 16:00:00,61.5,52.0,29.81,SW,224,0.0,2.0,71,0.00,,---,0.00,104.00,VWS V14.01,2013-10-22 20:00:00,
2013-10-22 16:01:00,61.6,52.1,29.81,NE,50,0.0,1.0,71,0.00,,---,0.00,135.00,VWS V14.01,2013-10-22 20:01:00,
2013-10-22 16:07:00,61.6,52.1,29.81,SW,224,0.0,2.0,71,0.00,,---,0.00,97.00,VWS V14.01,2013-10-22 20:07:00,
2013-10-22 16:10:00,61.2,51.7,29.81,South,186,0.0,4.0,71,0.00,,---,0.00,69.00,VWS V14.01,2013-10-22 20:10:00,
2013-10-22 16:12:00,61.4,51.9,29.81,SW,236,0.0,4.0,71,0.00,,---,0.00,93.00,VWS V14.01,2013-10-22 20:12:00,
2013-10-22 16:17:00,61.2,51.7,29.81,South,184,0.0,4.0,71,0.00,,---,0.00,72.00,VWS V14.01,2013-10-22 20:17:00,
2013-10-22 16:20:00,60.7,51.2,29.81,WSW,244,0.0,4.0,71,0.00,,---,0.00,83.00,VWS V14.01,2013-10-22 20:20:00,
2013-10-22 16:22:00,61.0,51.9,29.81,WSW,243,2.0,4.0,72,0.00,,---,0.00,69.00,VWS V14.01,2013-10-22 20:22:00,
2013-10-22 16:27:00,60.8,51.7,29.81,WSW,244,0.0,4.0,72,0.00,,---,0.00,83.00,VWS V14.01,2013-10-22 20:27:00,
2013-10-22 16:30:00,60.3,51.2,29.81,WNW,298,0.0,6.0,72,0.00,,---,0.00,135.00,VWS V14.01,2013-10-22 20:30:00,
2013-10-22 16:32:00,60.5,51.1,29.81,SW,234,0.0,4.0,71,0.00,,---,0.00,91.00,VWS V14.01,2013-10-22 20:32:00,
2013-10-22 16:37:00,60.4,51.3,29.81,WNW,297,0.0,6.0,72,0.00,,---,0.00,135.00,VWS V14.01,2013-10-22 20:37:00,
2013-10-22 16:40:00,60.4,51.0,29.80,WNW,292,0.0,9.0,71,0.00,,---,0.00,146.00,VWS V14.01,2013-10-22 20:40:00,
2013-10-22 16:42:00,60.4,51.0,29.80,SW,225,1.0,4.0,71,0.00,,---,0.00,156.00,VWS V14.01,2013-10-22 20:42:00,
2013-10-22 16:47:00,60.4,51.0,29.80,WNW,292,0.0,9.0,71,0.00,,---,0.00,146.00,VWS V14.01,2013-10-22 20:47:00,
2013-10-22 16:50:00,60.4,51.3,29.80,SW,229,0.0,5.0,72,0.00,,---,0.00,178.00,VWS V14.01,2013-10-22 20:50:00,
2013-10-22 16:53:00,60.4,51.0,29.80,SSW,212,0.0,5.0,71,0.00,,---,0.00,142.00,VWS V14.01,2013-10-22 20:53:00,
2013-10-22 16:58:00,60.4,51.3,29.80,SW,229,0.0,0.0,72,0.00,,---,0.00,178.00,VWS V14.01,2013-10-22 20:58:00,
2013-10-22 17:00:00,60.5,51.1,29.80,SW,232,2.0,10.0,71,0.00,,---,0.00,100.00,VWS V14.01,2013-10-22 21:00:00,
2013-10-22 17:03:00,60.5,50.7,29.80,WSW,239,3.0,10.0,70,0.00,,---,0.00,193.00,VWS V14.01,2013-10-22 21:03:00,
2013-10-22 17:08:00,60.5,51.1,29.80,SW,234,4.0,4.0,71,0.00,,---,0.00,104.00,VWS V14.01,2013-10-22 21:08:00,
2013-10-22 17:10:00,60.0,51.0,29.80,SW,234,0.0,7.0,72,0.00,,---,0.00,69.00,VWS V14.01,2013-10-22 21:10:00,
2013-10-22 17:13:00,60.3,50.9,29.80,SW,234,0.0,7.0,71,0.00,,---,0.00,88.00,VWS V14.01,2013-10-22 21:13:00,
2013-10-22 17:18:00,60.0,51.0,29.80,SW,228,1.0,4.0,72,0.00,,---,0.00,69.00,VWS V14.01,2013-10-22 21:18:00,
2013-10-22 17:20:00,59.6,50.6,29.80,West,273,0.0,5.0,72,0.00,,---,0.00,76.00,VWS V14.01,2013-10-22 21:20:00,
2013-10-22 17:23:00,59.8,50.8,29.80,WSW,239,0.0,5.0,72,0.00,,---,0.00,69.00,VWS V14.01,2013-10-22 21:23:00,
2013-10-22 17:28:00,59.6,50.6,29.80,SW,228,0.0,4.0,72,0.00,,---,0.00,56.00,VWS V14.01,2013-10-22 21:28:00,
2013-10-22 17:30:00,59.2,50.6,29.80,WSW,238,0.0,7.0,73,0.00,,---,0.00,54.00,VWS V14.01,2013-10-22 21:30:00,
2013-10-22 17:34:00,59.4,50.8,29.80,WSW,242,4.0,7.0,73,0.00,,---,0.00,58.00,VWS V14.01,2013-10-22 21:34:00,
2013-10-22 17:39:00,59.2,50.6,29.80,SW,214,1.0,4.0,73,0.00,,---,0.00,54.00,VWS V14.01,2013-10-22 21:39:00,
2013-10-22 17:40:00,59.0,50.7,29.80,SW,234,0.0,4.0,74,0.00,,---,0.00,49.00,VWS V14.01,2013-10-22 21:40:00,
2013-10-22 17:44:00,59.1,50.8,29.79,WSW,240,0.0,4.0,74,0.00,,---,0.00,49.00,VWS V14.01,2013-10-22 21:44:00,
2013-10-22 17:49:00,59.0,50.7,29.79,SW,236,1.0,3.0,74,0.00,,---,0.00,44.00,VWS V14.01,2013-10-22 21:49:00,
2013-10-22 17:50:00,58.9,50.6,29.79,SW,230,0.0,4.0,74,0.00,,---,0.00,53.00,VWS V14.01,2013-10-22 21:50:00,
2013-10-22 17:54:00,58.9,50.6,29.79,SW,236,0.0,3.0,74,0.00,,---,0.00,54.00,VWS V14.01,2013-10-22 21:54:00,
2013-10-22 17:59:00,58.9,50.6,29.79,SW,233,0.0,1.0,74,0.00,,---,0.00,46.00,VWS V14.01,2013-10-22 21:59:00,
2013-10-22 18:00:00,58.7,50.5,29.79,SW,227,2.0,3.0,74,0.00,,---,0.00,28.00,VWS V14.01,2013-10-22 22:00:00,
2013-10-22 18:04:00,58.8,50.5,29.79,SW,233,0.0,2.0,74,0.00,,---,0.00,32.00,VWS V14.01,2013-10-22 22:04:00,
2013-10-22 18:09:00,58.6,50.7,29.79,SW,227,0.0,2.0,75,0.00,,---,0.00,33.00,VWS V14.01,2013-10-22 22:09:00,
2013-10-22 18:10:00,58.4,50.5,29.79,SW,227,0.0,2.0,75,0.00,,---,0.00,25.00,VWS V14.01,2013-10-22 22:10:00,
2013-10-22 18:14:00,58.5,50.6,29.79,SW,227,1.0,2.0,75,0.00,,---,0.00,30.00,VWS V14.01,2013-10-22 22:14:00,
2013-10-22 18:20:00,58.3,50.4,29.79,SW,227,0.0,0.0,75,0.00,,---,0.00,23.00,VWS V14.01,2013-10-22 22:20:00,
2013-10-22 18:25:00,58.2,50.3,29.78,SW,228,0.0,1.0,75,0.00,,---,0.00,18.00,VWS V14.01,2013-10-22 22:25:00,
2013-10-22 18:30:00,58.0,50.1,29.79,SW,228,0.0,0.0,75,0.00,,---,0.00,14.00,VWS V14.01,2013-10-22 22:30:00,
2013-10-22 18:35:00,57.9,50.4,29.78,SW,228,0.0,0.0,76,0.00,,---,0.00,9.00,VWS V14.01,2013-10-22 22:35:00,
2013-10-22 18:40:00,57.7,50.2,29.78,SW,228,0.0,0.0,76,0.00,,---,0.00,7.00,VWS V14.01,2013-10-22 22:40:00,
2013-10-22 18:45:00,57.3,50.2,29.78,SW,228,0.0,0.0,77,0.00,,---,0.00,0.00,VWS V14.01,2013-10-22 22:45:00,
2013-10-22 18:50:00,57.0,49.9,29.78,SW,228,0.0,0.0,77,0.00,,---,0.00,0.00,VWS V14.01,2013-10-22 22:50:00,
2013-10-22 18:55:00,56.7,49.9,29.78,SW,228,0.0,0.0,78,0.00,,---,0.00,0.00,VWS V14.01,2013-10-22 22:55:00,
2013-10-22 19:00:00,56.4,50.0,29.78,SW,228,0.0,0.0,79,0.00,,---,0.00,0.00,VWS V14.01,2013-10-22 23:00:00,
2013-10-22 19:06:00,56.2,49.8,29.78,SW,228,0.0,0.0,79,0.00,,---,0.00,0.00,VWS V14.01,2013-10-22 23:06:00,
2013-10-22 19:10:00,56.1,50.0,29.79,SW,228,0.0,1.0,80,0.00,,---,0.00,0.00,VWS V14.01,2013-10-22 23:10:00,
2013-10-22 19:11:00,56.1,50.0,29.79,SW,228,0.0,1.0,80,0.00,,---,0.00,0.00,VWS V14.01,2013-10-22 23:11:00,
2013-10-22 19:16:00,56.0,49.9,29.79,SW,228,0.0,1.0,80,0.00,,---,0.00,0.00,VWS V14.01,2013-10-22 23:16:00,
2013-10-22 19:20:00,56.0,49.9,29.79,SW,228,0.0,0.0,80,0.00,,---,0.00,0.00,VWS V14.01,2013-10-22 23:20:00,
2013-10-22 19:21:00,56.1,50.0,29.79,SW,228,0.0,0.0,80,0.00,,---,0.00,0.00,VWS V14.01,2013-10-22 23:21:00,
2013-10-22 19:26:00,56.0,49.9,29.79,SW,228,0.0,0.0,80,0.00,,---,0.00,0.00,VWS V14.01,2013-10-22 23:26:00,
2013-10-22 19:30:00,55.8,50.1,29.79,SW,228,0.0,0.0,81,0.00,,---,0.00,0.00,VWS V14.01,2013-10-22 23:30:00,
2013-10-22 19:32:00,55.9,50.2,29.79,SW,228,0.0,0.0,81,0.00,,---,0.00,0.00,VWS V14.01,2013-10-22 23:32:00,
2013-10-22 19:37:00,55.9,50.2,29.79,SW,228,0.0,0.0,81,0.00,,---,0.00,0.00,VWS V14.01,2013-10-22 23:37:00,
2013-10-22 19:40:00,55.7,50.3,29.79,SW,228,0.0,0.0,82,0.00,,---,0.00,0.00,VWS V14.01,2013-10-22 23:40:00,
2013-10-22 19:42:00,55.8,50.4,29.79,SW,228,0.0,0.0,82,0.00,,---,0.00,0.00,VWS V14.01,2013-10-22 23:42:00,
2013-10-22 19:47:00,55.6,50.2,29.79,SW,228,0.0,0.0,82,0.00,,---,0.00,0.00,VWS V14.01,2013-10-22 23:47:00,
2013-10-22 19:50:00,55.4,50.3,29.79,SW,228,0.0,0.0,83,0.00,,---,0.00,0.00,VWS V14.01,2013-10-22 23:50:00,
2013-10-22 19:52:00,55.5,50.1,29.79,SW,228,0.0,0.0,82,0.00,,---,0.00,0.00,VWS V14.01,2013-10-22 23:52:00,
2013-10-22 19:57:00,55.4,50.3,29.79,SW,228,0.0,0.0,83,0.00,,---,0.00,0.00,VWS V14.01,2013-10-22 23:57:00,
2013-10-22 20:00:00,55.1,50.0,29.79,SW,228,0.0,0.0,83,0.00,,---,0.00,0.00,VWS V14.01,2013-10-23 00:00:00,
2013-10-22 20:02:00,55.3,50.2,29.79,SW,228,0.0,0.0,83,0.00,,---,0.00,0.00,VWS V14.01,2013-10-23 00:02:00,
2013-10-22 20:07:00,55.1,50.0,29.79,SW,228,0.0,0.0,83,0.00,,---,0.00,0.00,VWS V14.01,2013-10-23 00:07:00,
2013-10-22 20:10:00,54.7,50.3,29.79,SW,228,0.0,2.0,85,0.00,,---,0.00,0.00,VWS V14.01,2013-10-23 00:10:00,
2013-10-22 20:12:00,54.9,49.8,29.79,SW,228,0.0,0.0,83,0.00,,---,0.00,0.00,VWS V14.01,2013-10-23 00:12:00,
2013-10-22 20:17:00,54.7,50.3,29.79,SW,228,0.0,2.0,85,0.00,,---,0.00,0.00,VWS V14.01,2013-10-23 00:17:00,
2013-10-22 20:20:00,54.3,49.6,29.79,SW,228,0.0,0.0,84,0.00,,---,0.00,0.00,VWS V14.01,2013-10-23 00:20:00,
2013-10-22 20:23:00,54.5,49.8,29.79,SW,228,0.0,0.0,84,0.00,,---,0.00,0.00,VWS V14.01,2013-10-23 00:23:00,
2013-10-22 20:28:00,54.3,49.6,29.79,SW,228,0.0,0.0,84,0.00,,---,0.00,0.00,VWS V14.01,2013-10-23 00:28:00,
2013-10-22 20:30:00,53.9,49.5,29.79,SW,228,0.0,0.0,85,0.00,,---,0.00,0.00,VWS V14.01,2013-10-23 00:30:00,
2013-10-22 20:33:00,54.1,49.7,29.79,SW,228,0.0,0.0,85,0.00,,---,0.00,0.00,VWS V14.01,2013-10-23 00:33:00,
2013-10-22 20:38:00,53.9,49.5,29.79,SW,228,0.0,0.0,85,0.00,,---,0.00,0.00,VWS V14.01,2013-10-23 00:38:00,
2013-10-22 20:40:00,53.6,49.5,29.78,SW,228,0.0,0.0,86,0.00,,---,0.00,0.00,VWS V14.01,2013-10-23 00:40:00,
2013-10-22 20:43:00,53.7,49.6,29.78,SW,228,0.0,0.0,86,0.00,,---,0.00,0.00,VWS V14.01,2013-10-23 00:43:00,
2013-10-22 20:48:00,53.5,49.4,29.78,SW,228,0.0,0.0,86,0.00,,---,0.00,0.00,VWS V14.01,2013-10-23 00:48:00,
2013-10-22 20:50:00,53.2,49.4,29.79,SW,228,0.0,0.0,87,0.00,,---,0.00,0.00,VWS V14.01,2013-10-23 00:50:00,
2013-10-22 20:53:00,53.3,49.5,29.79,SW,228,0.0,0.0,87,0.00,,---,0.00,0.00,VWS V14.01,2013-10-23 00:53:00,
2013-10-22 20:58:00,53.1,49.3,29.79,SW,228,0.0,0.0,87,0.00,,---,0.00,0.00,VWS V14.01,2013-10-23 00:58:00,
2013-10-22 21:00:00,53.0,49.5,29.79,SW,228,0.0,0.0,88,0.00,,---,0.00,0.00,VWS V14.01,2013-10-23 01:00:00,
2013-10-22 21:04:00,53.1,49.7,29.79,SW,228,0.0,0.0,88,0.00,,---,0.00,0.00,VWS V14.01,2013-10-23 01:04:00,
2013-10-22 21:09:00,53.0,49.5,29.79,SW,228,0.0,0.0,88,0.00,,---,0.00,0.00,VWS V14.01,2013-10-23 01:09:00,
2013-10-22 21:10:00,53.0,49.8,29.79,SW,228,0.0,0.0,89,0.00,,---,0.00,0.00,VWS V14.01,2013-10-23 01:10:00,
2013-10-22 21:14:00,53.0,49.8,29.79,SW,228,0.0,0.0,89,0.00,,---,0.00,0.00,VWS V14.01,2013-10-23 01:14:00,
2013-10-22 21:19:00,53.0,49.8,29.79,SW,228,0.0,0.0,89,0.00,,---,0.00,0.00,VWS V14.01,2013-10-23 01:19:00,
2013-10-22 21:20:00,53.0,49.8,29.79,SW,228,0.0,0.0,89,0.00,,---,0.00,0.00,VWS V14.01,2013-10-23 01:20:00,
2013-10-22 21:24:00,53.0,49.8,29.79,SW,228,0.0,0.0,89,0.00,,---,0.00,0.00,VWS V14.01,2013-10-23 01:24:00,
2013-10-22 21:29:00,53.0,49.8,29.79,SW,228,0.0,0.0,89,0.00,,---,0.00,0.00,VWS V14.01,2013-10-23 01:29:00,
2013-10-22 21:30:00,53.0,49.8,29.79,SW,228,0.0,0.0,89,0.00,,---,0.00,0.00,VWS V14.01,2013-10-23 01:30:00,
2013-10-22 21:34:00,53.0,49.8,29.79,SW,228,0.0,0.0,89,0.00,,---,0.00,0.00,VWS V14.01,2013-10-23 01:34:00,
2013-10-22 21:40:00,53.0,49.8,29.79,SW,228,0.0,0.0,89,0.00,,---,0.00,0.00,VWS V14.01,2013-10-23 01:40:00,
2013-10-22 21:45:00,52.9,49.8,29.79,SW,228,0.0,0.0,89,0.00,,---,0.00,0.00,VWS V14.01,2013-10-23 01:45:00,
2013-10-22 21:50:00,52.9,50.0,29.79,SW,228,0.0,0.0,90,0.00,,---,0.00,0.00,VWS V14.01,2013-10-23 01:50:00,
2013-10-22 21:55:00,53.0,50.2,29.80,SW,228,0.0,2.0,90,0.00,,---,0.00,0.00,VWS V14.01,2013-10-23 01:55:00,
2013-10-22 22:00:00,53.1,50.2,29.79,SW,228,0.0,0.0,90,0.00,,---,0.00,0.00,VWS V14.01,2013-10-23 02:00:00,
2013-10-22 22:05:00,53.2,50.0,29.79,SW,228,0.0,0.0,89,0.00,,---,0.00,0.00,VWS V14.01,2013-10-23 02:05:00,
2013-10-22 22:10:00,53.3,50.2,29.79,SW,228,0.0,1.0,89,0.00,,---,0.00,0.00,VWS V14.01,2013-10-23 02:10:00,
2013-10-22 22:16:00,53.4,50.2,29.79,SW,228,0.0,1.0,89,0.00,,---,0.00,0.00,VWS V14.01,2013-10-23 02:16:00,
2013-10-22 22:20:00,53.4,50.2,29.79,SW,228,0.0,0.0,89,0.00,,---,0.00,0.00,VWS V14.01,2013-10-23 02:20:00,
2013-10-22 22:21:00,53.4,50.2,29.79,SW,228,0.0,0.0,89,0.00,,---,0.00,0.00,VWS V14.01,2013-10-23 02:21:00,
2013-10-22 22:26:00,53.4,50.2,29.79,SW,228,0.0,0.0,89,0.00,,---,0.00,0.00,VWS V14.01,2013-10-23 02:26:00,
2013-10-22 22:30:00,53.3,50.2,29.79,SW,228,0.0,0.0,89,0.00,,---,0.00,0.00,VWS V14.01,2013-10-23 02:30:00,
2013-10-22 22:31:00,53.3,50.2,29.79,SW,228,0.0,0.0,89,0.00,,---,0.00,0.00,VWS V14.01,2013-10-23 02:31:00,
2013-10-22 22:36:00,53.3,50.2,29.79,SW,228,0.0,0.0,89,0.00,,---,0.00,0.00,VWS V14.01,2013-10-23 02:36:00,
2013-10-22 22:40:00,53.2,50.0,29.79,SW,228,0.0,0.0,89,0.00,,---,0.00,0.00,VWS V14.01,2013-10-23 02:40:00,
2013-10-22 22:41:00,53.3,50.2,29.79,SW,228,0.0,0.0,89,0.00,,---,0.00,0.00,VWS V14.01,2013-10-23 02:41:00,
2013-10-22 22:46:00,53.2,50.0,29.79,SW,228,0.0,0.0,89,0.00,,---,0.00,0.00,VWS V14.01,2013-10-23 02:46:00,
2013-10-22 22:50:00,53.1,50.0,29.79,SW,228,0.0,0.0,89,0.00,,---,0.00,0.00,VWS V14.01,2013-10-23 02:50:00,
2013-10-22 22:51:00,53.2,50.0,29.79,SW,228,0.0,0.0,89,0.00,,---,0.00,0.00,VWS V14.01,2013-10-23 02:51:00,
2013-10-22 22:56:00,53.1,50.0,29.79,SW,228,0.0,0.0,89,0.00,,---,0.00,0.00,VWS V14.01,2013-10-23 02:56:00,
2013-10-22 23:00:00,53.1,50.0,29.79,SW,228,0.0,0.0,89,0.00,,---,0.00,0.00,VWS V14.01,2013-10-23 03:00:00,
2013-10-22 23:02:00,53.1,50.2,29.79,SW,228,0.0,0.0,90,0.00,,---,0.00,0.00,VWS V14.01,2013-10-23 03:02:00,
2013-10-22 23:07:00,53.1,50.0,29.79,SW,228,0.0,0.0,89,0.00,,---,0.00,0.00,VWS V14.01,2013-10-23 03:07:00,
2013-10-22 23:10:00,53.0,50.2,29.78,SW,228,0.0,0.0,90,0.00,,---,0.00,0.00,VWS V14.01,2013-10-23 03:10:00,
2013-10-22 23:12:00,53.0,50.2,29.78,SW,228,0.0,0.0,90,0.00,,---,0.00,0.00,VWS V14.01,2013-10-23 03:12:00,
2013-10-22 23:17:00,53.0,50.2,29.78,SW,228,0.0,0.0,90,0.00,,---,0.00,0.00,VWS V14.01,2013-10-23 03:17:00,
2013-10-22 23:20:00,52.8,50.0,29.78,SW,228,0.0,0.0,90,0.00,,---,0.00,0.00,VWS V14.01,2013-10-23 03:20:00,
2013-10-22 23:22:00,52.9,50.0,29.78,SW,228,0.0,0.0,90,0.00,,---,0.00,0.00,VWS V14.01,2013-10-23 03:22:00,
2013-10-22 23:27:00,52.9,50.0,29.78,SW,228,0.0,0.0,90,0.00,,---,0.00,0.00,VWS V14.01,2013-10-23 03:27:00,
2013-10-22 23:30:00,52.7,49.8,29.78,SW,228,0.0,0.0,90,0.00,,---,0.00,0.00,VWS V14.01,2013-10-23 03:30:00,
2013-10-22 23:32:00,52.8,50.0,29.78,SW,228,0.0,0.0,90,0.00,,---,0.00,0.00,VWS V14.01,2013-10-23 03:32:00,
2013-10-22 23:37:00,52.6,49.8,29.78,SW,228,0.0,0.0,90,0.00,,---,0.00,0.00,VWS V14.01,2013-10-23 03:37:00,
2013-10-22 23:40:00,52.6,50.0,29.77,SW,228,0.0,0.0,91,0.00,,---,0.00,0.00,VWS V14.01,2013-10-23 03:40:00,
2013-10-22 23:43:00,52.6,50.0,29.78,SW,228,0.0,0.0,91,0.00,,---,0.00,0.00,VWS V14.01,2013-10-23 03:43:00,
2013-10-22 23:48:00,52.6,50.0,29.77,SW,228,0.0,0.0,91,0.00,,---,0.00,0.00,VWS V14.01,2013-10-23 03:48:00,
2013-10-22 23:50:00,52.5,50.0,29.77,SW,228,0.0,0.0,91,0.00,,---,0.00,0.00,VWS V14.01,2013-10-23 03:50:00,
2013-10-22 23:53:00,52.6,50.0,29.77,SW,228,0.0,0.0,91,0.00,,---,0.00,0.00,VWS V14.01,2013-10-23 03:53:00,
2013-10-22 23:58:00,52.5,50.0,29.76,SW,228,0.0,0.0,91,0.00,,---,0.00,0.00,VWS V14.01,2013-10-23 03:58:00,